Theta_e
319 319 318 318 317 316 314 313 311 310 309 308 307 307 306 306 306 306 306 306 306 305 306 306 306 306 306 305 305 305 305 305 305 305 305 305 305 304 304 303 302 302 299 298 298 297 297 297 296 295 292 284
316 316 316 315 314 313 312 311 309 308 307 306 305 304 304 304 304 304 304 304 304 304 305 305 305 305 305 305 304 304 304 303 303 303 303 303 303 303 302 302 301 300 298 297 297 297 296 295 294 293 291 284
312 313 312 312 312 310 309 308 306 305 304 303 303 302 302 302 302 301 302 302 302 303 303 303 303 303 304 304 303 303 303 303 302 301 301 302 302 302 301 301 299 298 297 295 295 295 294 292 291 291 286 284
308 310 310 309 308 307 306 304 303 302 301 299 299 299 299 298 295 298 298 301 298 301 301 301 300 301 302 303 302 302 302 302 301 301 300 299 299 300 299 298 297 296 295 294 292 292 291 290 287 280 281 281
304 306 306 305 305 304 302 301 300 299 298 297 295 294 295 292 287 286 287 289 292 297 296 299 299 299 300 301 301 301 301 301 300 299 298 298 296 294 293 292 294 294 293 292 290 289 287 285 278 278 279 279
296 295 294 291 292 293 294 295 294 291 290 292 289 292 288 286 288 285 285 287 291 289 293 294 298 298 298 299 300 299 299 299 299 298 297 296 294 292 290 288 278 281 289 290 288 286 285 277 276 276 277 277
293 290 290 290 290 291 292 291 289 287 287 284 285 285 285 285 284 285 285 286 288 290 294 292 294 295 295 296 297 297 298 297 297 296 295 294 292 290 288 279 278 277 277 279 285 283 277 275 276 276 276 276
289 288 287 286 286 285 285 285 286 284 284 283 283 283 283 282 283 281 283 288 287 285 280 282 289 290 290 290 289 288 287 291 292 292 292 290 288 285 281 277 277 277 276 276 276 276 276 275 275 275 275 274
287 287 286 285 285 284 283 283 283 283 283 283 282 282 282 281 281 280 279 278 279 278 278 278 277 278 278 279 280 283 277 278 280 279 277 279 280 277 278 277 277 276 276 277 276 276 275 275 275 275 275 274
289 287 285 284 284 283 282 283 282 282 282 282 282 281 282 281 279 279 278 278 277 277 277 277 277 277 277 277 278 280 277 277 277 277 277 278 277 277 277 276 276 278 278 276 275 275 275 275 275 274 273 274
286 285 284 284 283 282 281 281 281 281 281 281 281 281 282 279 278 278 277 277 277 277 277 276 276 276 276 276 276 278 276 276 276 276 277 276 277 276 276 276 276 276 275 275 275 275 275 275 274 274 274 274
285 284 284 285 286 283 285 282 280 280 280 281 281 281 281 281 278 277 277 276 276 276 276 276 276 276 276 276 276 277 277 276 276 276 276 276 276 276 276 276 276 275 275 275 275 275 274 274 274 274 274 274
285 285 284 283 282 282 285 280 280 280 280 280 281 280 280 280 277 277 276 276 276 275 275 275 275 275 275 276 276 276 276 276 276 276 276 276 275 276 276 275 275 275 275 275 275 274 274 274 274 274 274 274
283 283 282 282 282 282 282 279 279 279 279 279 279 279 279 280 277 277 276 276 275 275 275 275 275 275 275 275 275 276 275 275 275 275 275 275 276 276 276 276 278 275 274 275 275 274 274 274 274 274 274 274
283 283 282 282 281 280 279 280 280 279 278 278 278 279 279 279 279 277 276 275 275 275 274 274 274 274 275 274 275 275 275 276 276 275 275 276 275 275 275 275 276 274 274 274 274 276 274 274 274 274 274 274
282 281 281 281 280 279 279 280 278 278 278 280 278 278 278 278 278 279 276 275 275 275 274 274 274 274 274 274 275 275 275 275 275 275 276 276 276 275 276 275 275 275 274 274 274 274 274 274 274 273 274 274
282 282 281 280 279 280 280 279 278 277 277 277 277 277 277 277 278 278 276 276 276 277 274 274 274 274 276 274 275 275 275 275 274 275 275 276 276 275 275 275 275 276 274 274 274 274 274 274 274 274 274 274
282 281 280 280 279 280 278 278 277 278 277 278 277 277 277 277 277 276 275 275 274 274 274 274 274 274 274 274 275 275 275 274 274 274 274 275 275 278 275 274 274 274 274 274 274 274 274 274 273 273 273 273
282 282 281 279 278 278 278 278 277 277 276 276 276 276 276 276 277 276 275 275 274 274 274 274 274 274 273 274 275 274 274 274 274 274 274 274 273 273 273 273 275 273 273 274 274 275 275 273 273 274 273 274
282 281 279 279 279 278 278 277 276 276 276 276 276 276 275 276 276 275 275 275 274 274 274 274 274 273 274 274 274 274 275 275 274 273 273 274 273 273 273 274 272 272 273 274 274 274 274 275 276 273 273 274
281 280 279 278 278 277 277 276 276 276 275 275 275 275 275 276 276 275 275 275 274 274 274 273 274 274 274 275 274 273 273 274 275 274 274 273 274 272 271 271 271 271 272 273 273 274 274 274 276 273 273 274
280 280 279 277 277 278 276 276 276 275 275 275 275 275 275 275 276 275 274 274 274 274 274 274 273 273 273 273 273 273 273 273 273 273 272 271 272 271 271 270 270 270 271 273 274 273 273 274 274 273 273 275
280 279 278 277 276 276 275 275 275 275 274 275 274 274 275 275 275 275 274 275 275 274 274 273 273 273 273 273 272 272 272 273 274 273 272 271 271 271 270 270 270 269 270 272 273 273 273 274 274 274 273 277
279 278 277 275 275 275 275 274 275 274 274 274 274 275 275 275 274 275 275 274 274 274 273 273 273 272 273 273 272 272 272 271 272 272 271 271 271 270 270 270 269 269 269 271 271 274 275 274 274 273 276 273
278 277 276 275 275 274 274 274 274 274 274 274 274 274 274 274 274 274 275 274 274 273 275 273 272 272 272 272 272 272 271 271 272 273 273 273 273 270 269 269 268 269 269 270 273 272 272 273 273 277 277 272
279 278 277 275 275 274 274 275 274 273 273 274 275 274 274 274 274 274 274 275 274 273 272 272 272 272 272 272 271 272 272 272 274 272 271 271 269 270 269 267 268 268 269 271 270 271 271 273 273 275 275 274
279 279 278 277 275 275 274 274 274 274 274 275 274 274 274 274 273 273 273 274 274 272 272 272 272 271 271 271 272 270 270 270 270 270 270 270 269 269 269 269 269 268 268 267 268 270 271 270 270 274 273 271
280 279 278 277 276 275 274 273 275 274 274 273 273 272 273 273 273 273 272 273 272 271 271 271 271 271 271 270 271 270 270 270 269 270 270 270 271 270 267 266 267 268 267 266 268 270 268 268 266 267 269 267
280 279 277 276 276 275 274 274 273 272 272 272 273 272 272 272 272 272 271 271 271 271 270 270 270 270 270 270 270 269 269 269 269 269 269 270 270 269 267 265 264 267 267 266 266 266 267 266 266 266 266 265
279 278 276 275 273 272 272 271 271 270 270 271 271 271 272 272 271 271 271 271 271 271 270 270 269 269 269 268 268 268 268 268 268 268 267 267 268 269 269 267 266 263 267 265 266 264 263 266 268 265 264 267
279 277 276 275 274 273 272 271 271 272 272 272 272 272 271 270 270 270 270 270 270 270 270 269 269 268 268 267 267 267 267 266 265 265 266 266 267 268 270 268 266 265 264 264 265 263 262 263 261 260 264 265
Wind_Speed
18 18 18 18 18 18 17 16 15 15 15 14 14 13 13 13 14 14 13 13 14 15 15 14 15 15 15 15 15 16 16 16 17 17 18 18 19 19 19 20 21 21 23 23 22 21 21 21 21 20 16 9
17 17 17 18 17 17 17 16 16 15 15 14 14 14 15 15 14 14 15 14 15 15 15 15 15 15 16 16 16 16 16 16 16 17 18 18 19 19 20 21 21 22 23 23 22 21 21 20 20 20 18 9
13 17 16 16 17 17 17 16 16 16 15 15 15 15 16 16 16 15 15 15 15 15 16 16 15 15 15 15 16 16 16 17 17 17 18 19 19 20 21 21 22 22 22 22 22 22 20 20 19 19 12 10
10 14 16 16 18 17 17 16 16 16 15 15 15 15 15 15 11 11 11 16 12 15 15 15 13 15 15 16 16 16 16 16 17 17 18 19 19 20 21 22 22 22 22 21 21 20 20 19 18 10 8 10
9 12 16 14 17 18 17 16 16 17 16 14 14 13 15 13 9 8 7 7 6 11 9 13 14 14 15 15 15 16 16 16 17 18 19 19 20 20 21 21 21 22 21 21 20 19 17 15 8 7 8 8
6 7 9 8 7 7 9 12 13 10 7 8 6 13 9 6 6 6 5 6 8 7 7 9 15 14 14 15 15 16 16 17 18 19 20 20 21 21 21 21 11 11 17 21 19 18 16 7 6 6 7 7
7 7 6 6 7 7 10 9 8 8 8 6 6 5 6 5 5 5 5 6 7 6 12 11 14 15 15 15 16 16 17 17 19 19 20 21 21 21 20 11 8 8 8 9 16 13 7 5 5 5 6 5
7 6 6 6 6 7 7 7 7 7 7 6 6 6 6 6 6 6 6 10 14 11 7 8 12 15 15 15 16 16 12 16 18 20 21 21 19 13 7 7 7 7 6 7 6 6 6 5 5 4 5 5
7 7 6 6 6 6 6 6 6 6 6 6 6 6 6 7 6 6 6 6 6 6 6 6 6 6 6 6 6 10 7 7 8 9 8 8 9 7 7 7 7 6 6 5 5 5 5 5 4 4 4 5
8 8 7 7 6 7 6 6 6 6 6 6 6 6 6 7 7 7 6 6 6 6 5 6 5 5 5 5 5 4 6 6 6 7 7 7 8 7 6 7 6 5 5 5 5 5 5 5 4 4 4 4
7 7 6 6 6 7 6 5 6 6 6 6 6 5 5 7 6 7 6 6 6 6 5 6 5 5 5 5 6 4 6 7 6 6 7 7 7 6 6 6 5 5 5 5 5 5 4 4 3 3 5 5
8 7 7 7 7 6 7 6 6 6 6 6 6 5 5 5 6 7 7 6 6 5 5 5 4 4 5 5 5 4 4 7 6 6 6 6 6 6 5 5 5 5 4 4 4 4 3 3 3 4 5 5
7 7 7 7 7 6 7 6 5 6 6 7 6 5 5 5 6 6 7 7 6 5 6 5 4 5 5 5 5 5 5 5 6 6 6 6 6 6 6 5 5 4 4 4 4 4 3 3 4 4 5 5
7 7 8 7 7 6 6 6 6 5 6 6 6 6 5 5 5 6 7 7 6 6 6 5 4 5 5 5 4 4 6 5 6 6 6 5 5 6 5 6 5 4 4 3 3 3 4 4 4 5 5 5
8 7 7 7 6 6 7 7 6 6 6 6 6 5 5 5 5 6 7 7 7 5 6 5 5 5 5 5 5 4 5 4 5 5 5 5 6 6 6 5 4 5 4 3 3 3 4 4 4 5 4 4
8 7 8 8 7 6 6 7 6 6 6 6 5 5 5 5 6 6 7 7 6 6 6 5 5 5 5 4 4 4 5 5 4 4 4 4 5 5 5 5 5 3 4 3 3 3 3 3 4 4 3 3
8 8 8 8 7 6 6 7 6 7 6 6 5 5 5 5 6 6 7 7 7 6 6 5 5 5 5 4 4 4 5 5 4 5 5 5 4 5 5 5 5 3 3 4 3 3 2 3 3 2 3 4
8 8 8 7 6 6 7 6 6 6 6 6 5 5 5 5 5 6 6 7 6 6 6 5 5 5 5 4 4 4 5 6 5 5 5 4 5 5 5 5 3 4 3 2 2 3 1 2 2 2 3 4
7 7 9 8 7 6 6 6 6 6 6 6 5 5 5 5 6 6 7 6 7 6 6 6 5 5 5 4 4 5 5 6 5 5 4 4 6 5 4 4 3 3 3 3 2 1 1 2 1 1 3 3
7 7 9 8 7 6 6 6 6 6 6 6 5 5 5 5 6 6 7 6 5 6 5 6 6 5 5 4 5 5 5 5 6 5 5 3 3 6 4 4 4 3 3 2 2 2 0 1 1 2 2 2
8 8 10 8 8 7 6 6 6 6 6 6 5 5 5 6 6 6 7 6 5 6 6 6 6 5 5 4 5 5 5 5 5 4 5 4 3 3 4 4 3 3 3 2 2 2 1 1 1 1 1 1
8 8 9 8 7 6 6 6 5 6 6 6 5 5 6 6 6 6 7 6 5 5 5 5 6 6 5 5 5 5 5 5 4 4 4 6 3 3 4 4 3 2 2 2 3 2 1 1 0 1 2 1
8 9 8 7 7 7 7 5 4 5 6 5 5 5 6 6 6 7 7 6 5 6 6 6 6 6 5 5 5 6 6 5 5 5 4 6 5 5 5 4 3 2 2 2 2 3 2 2 2 3 2 1
8 7 9 9 7 7 6 6 5 5 5 5 5 5 6 6 6 6 7 6 5 6 6 6 6 6 5 5 5 6 6 5 5 6 7 5 5 5 4 4 3 2 2 1 1 2 3 3 3 3 3 2
10 10 8 6 9 8 8 7 7 6 6 5 5 5 5 6 6 6 7 6 6 6 6 6 6 6 5 5 5 5 5 4 5 4 4 5 3 3 3 4 3 2 1 0 1 1 2 2 1 3 1 1
8 6 11 11 9 8 9 9 9 8 7 6 5 5 5 5 5 6 6 6 5 5 6 7 6 6 6 6 5 5 4 4 4 5 5 5 5 3 3 3 4 3 1 2 3 2 1 2 1 0 0 1
7 7 6 7 8 9 7 3 4 5 6 6 6 5 4 4 5 6 6 6 5 6 6 6 7 6 6 6 6 6 6 5 5 4 4 3 6 6 3 3 3 4 3 2 2 0 2 1 2 1 1 2
6 7 8 7 9 7 4 6 6 6 6 6 6 6 5 4 4 5 6 5 5 5 5 6 7 6 6 6 4 6 7 6 6 4 4 4 3 5 5 2 4 5 4 2 3 2 1 0 1 2 1 3
9 10 9 9 9 8 8 6 6 7 6 6 6 6 6 6 4 5 5 5 5 5 6 6 6 7 6 6 5 4 5 6 5 5 3 3 4 3 5 5 2 4 4 4 1 2 3 1 0 2 2 3
9 9 12 11 10 9 7 8 9 11 12 10 9 9 6 5 5 5 5 5 5 5 5 6 6 6 7 7 5 4 5 5 5 5 5 2 3 3 2 5 5 2 3 4 6 4 1 1 2 2 1 0
9 9 8 13 12 15 13 8 5 5 7 9 7 7 8 6 5 4 5 5 5 5 5 6 6 7 7 6 5 5 5 5 4 3 4 2 4 3 5 5 5 6 4 2 5 4 3 6 4 2 3 1
Wind_Direction
113 116 117 119 120 115 115 118 114 111 108 104 99 94 92 91 89 90 89 89 89 90 92 93 96 97 97 98 96 94 92 89 87 87 86 86 85 84 83 81 79 77 73 72 79 79 78 55 44 39 35 27
109 110 112 116 115 118 121 119 116 112 108 106 103 100 96 95 95 93 90 93 93 96 96 94 96 97 99 99 99 96 92 89 87 86 85 86 87 85 83 81 79 76 74 72 77 78 76 55 45 38 31 25
104 106 111 119 121 121 121 121 119 114 110 107 105 103 101 100 100 96 94 92 97 99 100 99 97 98 99 100 99 97 95 95 93 91 89 87 87 85 82 80 78 76 75 75 74 76 72 53 44 36 27 17
106 119 116 121 123 123 122 121 117 111 108 104 100 96 92 82 67 73 89 93 94 98 100 100 99 100 99 98 98 98 97 96 93 92 92 89 84 82 80 77 76 75 76 74 74 71 65 55 42 31 24 14
108 120 122 124 124 121 119 116 113 108 102 97 96 93 93 84 74 68 50 44 51 91 99 98 99 101 101 100 100 97 96 95 92 90 86 84 82 78 71 65 69 77 76 75 75 74 68 53 33 25 19 11
83 83 77 77 81 82 89 92 90 88 88 93 92 96 91 86 85 70 58 60 70 52 58 95 99 96 98 98 97 97 96 95 89 86 84 83 80 77 74 68 56 50 69 76 76 75 68 50 37 19 17 10
101 94 91 88 90 95 93 93 90 94 94 91 91 88 86 82 77 83 82 71 67 65 88 90 92 93 91 92 95 95 94 90 85 82 81 80 79 78 74 68 64 66 58 59 68 65 60 59 49 35 19 13
107 105 99 101 101 99 98 93 97 99 101 99 96 93 90 86 80 69 67 79 72 66 44 53 66 69 68 73 74 68 63 69 72 73 77 78 75 71 65 68 65 68 66 71 69 66 63 61 55 48 36 21
121 118 112 109 107 102 98 99 94 97 102 100 99 93 92 92 87 88 84 80 77 66 65 65 58 53 57 55 58 68 71 68 70 68 65 65 67 63 66 65 66 66 70 70 71 71 66 65 61 51 40 36
129 126 124 121 117 108 97 100 100 98 100 103 100 101 102 97 95 93 91 87 84 73 75 73 64 64 62 63 65 57 77 73 76 72 70 73 72 66 65 69 68 67 78 81 74 71 65 65 62 59 52 42
124 127 127 121 123 116 110 106 105 102 101 101 103 103 107 107 107 103 100 93 88 86 80 80 70 72 65 71 72 59 82 82 74 77 77 77 75 73 70 70 70 74 74 76 81 74 70 66 69 61 56 45
126 129 131 132 121 110 119 112 107 106 106 103 100 104 106 107 111 114 106 100 94 96 87 83 82 77 73 70 72 72 73 87 80 79 81 86 80 80 76 77 70 69 72 73 77 83 79 77 66 61 53 46
128 131 124 122 123 121 120 109 108 113 107 101 102 99 109 118 117 109 108 105 105 103 93 90 83 78 77 75 70 75 71 75 84 80 82 85 96 95 93 85 77 72 71 74 77 87 86 75 65 59 52 46
132 135 128 126 123 128 117 113 116 111 102 103 106 107 107 111 116 115 115 113 109 106 104 97 89 83 76 80 72 74 84 72 82 90 83 86 93 101 100 94 91 86 82 75 84 85 84 70 66 62 60 51
135 135 129 125 125 121 123 121 114 106 105 101 103 110 112 113 116 114 113 112 115 107 108 104 98 92 91 78 74 83 87 76 81 80 90 98 103 104 103 99 94 96 90 87 70 70 74 74 67 62 57 61
138 137 130 125 125 127 126 120 115 113 108 107 107 111 113 117 117 116 110 115 115 115 114 110 106 100 90 89 84 87 88 82 72 79 75 84 91 101 102 100 91 89 94 84 89 82 76 70 72 66 66 64
139 137 130 129 131 134 129 119 117 115 114 113 114 112 114 120 120 116 120 118 119 118 114 115 111 98 92 96 97 92 92 89 81 74 76 79 96 86 85 87 83 85 79 90 85 82 81 78 70 71 70 63
143 140 131 125 129 131 126 123 122 118 116 116 115 113 114 118 118 116 115 119 117 116 118 115 108 110 100 101 101 97 94 88 86 89 84 90 86 85 83 87 78 78 69 49 64 78 91 81 95 91 66 66
137 135 130 131 131 134 131 127 123 120 116 116 119 117 113 118 121 119 119 121 123 121 121 122 117 106 117 108 104 96 94 102 88 91 95 106 101 93 82 81 73 78 70 53 41 22 94 114 130 62 79 60
136 132 126 129 132 130 130 127 127 126 123 122 120 119 119 120 123 120 122 124 126 122 125 125 122 125 117 111 102 102 103 100 104 103 94 71 107 111 89 86 63 51 53 32 26 344 323 197 111 92 64 76
132 129 129 130 129 130 129 132 131 126 124 121 123 125 124 127 126 124 126 127 130 125 129 127 124 126 116 110 108 108 105 101 117 114 106 79 67 90 109 87 75 51 34 6 339 317 319 241 127 112 160 188
137 128 122 123 128 127 126 129 130 129 126 127 129 131 130 132 130 129 129 130 132 125 126 125 126 123 116 113 110 108 106 110 113 108 108 102 64 71 91 77 67 33 3 343 325 321 308 304 226 206 222 227
126 121 111 114 120 122 123 123 127 129 126 132 133 135 138 134 134 134 132 135 137 130 129 127 126 121 122 117 117 115 113 119 118 110 105 107 97 68 68 85 61 30 323 315 310 304 288 309 289 264 248 210
137 135 138 135 127 124 136 138 139 134 133 137 137 143 138 135 138 138 136 138 138 133 134 131 131 126 124 121 123 125 123 126 133 131 120 114 109 103 78 53 39 34 9 309 280 297 305 281 272 267 233 214
156 151 133 132 156 151 154 152 145 142 145 141 145 145 139 139 141 141 139 142 142 140 136 132 130 127 121 121 119 119 122 127 128 126 120 112 103 101 91 44 6 27 332 28 86 341 323 323 236 249 201 283
165 171 165 159 165 152 157 156 158 154 155 150 148 145 141 141 143 144 144 144 142 139 141 140 137 134 133 128 123 117 121 119 112 116 117 126 83 47 93 59 355 353 10 69 169 160 267 324 328 292 14 336
159 146 127 141 145 151 141 106 124 134 139 138 143 143 142 142 145 145 142 146 145 144 145 142 139 138 135 131 134 130 122 118 115 126 140 146 134 116 82 102 33 19 18 161 119 317 86 308 12 288 327 335
114 111 102 85 119 112 104 144 134 122 123 130 134 149 149 147 151 148 142 144 145 139 141 143 140 137 134 134 136 140 137 134 128 127 129 132 151 134 113 62 43 27 25 95 130 125 182 201 109 345 307 321
133 123 107 107 90 95 99 101 128 136 151 158 157 149 163 165 155 150 143 141 143 145 141 134 134 135 133 130 131 130 132 134 135 122 120 146 158 169 141 140 138 27 34 53 351 161 102 42 25 223 246 13
149 154 144 141 141 151 165 163 175 186 173 168 174 173 152 146 156 152 145 142 142 145 142 135 133 131 130 127 125 124 124 125 122 121 121 114 147 154 171 140 127 105 37 53 47 42 96 162 177 189 229 127
159 159 167 163 163 167 174 160 171 159 160 159 155 151 158 130 110 123 137 136 140 143 137 133 133 132 130 127 126 127 127 130 133 129 122 116 115 147 142 152 117 148 162 123 51 35 47 66 50 78 128 191